• en Belgique
  • Liste des pays
  • À 7 jours
  • Température de l'eau
  • Carte satellitaire
  • Carte météo
  • Widgets météo
  • user-avatar
    Se connecter

    Météo par heure à Setif

    Ce jour, 19 Août, Samedi

    Heure Température Précipitation Vent Pression Humidité
    00:00 +28°C° 0 mm 1 m/s 675 mmHg 40%
    01:00 +28°C° 0 mm 1 m/s 675 mmHg 40%
    02:00 +27°C° 0 mm 1 m/s 674 mmHg 39%
    03:00 +27°C° 0 mm 1 m/s 674 mmHg 39%
    04:00 +27°C° 0 mm 1 m/s 674 mmHg 38%
    05:00 +27°C° 0 mm 1 m/s 675 mmHg 37%
    06:00 +28°C° 0 mm 1 m/s 675 mmHg 35%
    07:00 +29°C° 0 mm 2 m/s 675 mmHg 32%
    08:00 +30°C° 0 mm 3 m/s 676 mmHg 29%
    09:00 +31°C° 0 mm 3 m/s 676 mmHg 25%
    10:00 +33°C° 0 mm 3 m/s 676 mmHg 25%
    11:00 +34°C° 0 mm 3 m/s 677 mmHg 25%
    12:00 +34°C° 0 mm 4 m/s 677 mmHg 25%
    13:00 +34°C° 0 mm 3 m/s 676 mmHg 26%
    14:00 +34°C° 0 mm 3 m/s 676 mmHg 27%
    15:00 +34°C° 0 mm 2 m/s 676 mmHg 28%
    16:00 +33°C° 0 mm 3 m/s 676 mmHg 32%
    17:00 +32°C° 0 mm 4 m/s 676 mmHg 37%
    18:00 +30°C° 0 mm 4 m/s 675 mmHg 41%
    19:00 +29°C° 0 mm 4 m/s 676 mmHg 46%
    20:00 +28°C° 0 mm 3 m/s 676 mmHg 50%
    21:00 +27°C° 0 mm 3 m/s 676 mmHg 54%
    22:00 +26°C° 0 mm 3 m/s 676 mmHg 56%
    23:00 +26°C° 0 mm 2 m/s 676 mmHg 57%

    Demain, 20 Août, Dimanche

    Heure Température Précipitation Vent Pression Humidité
    00:00 +25°C° 0 mm 2 m/s 676 mmHg 58%
    01:00 +25°C° 0 mm 2 m/s 676 mmHg 59%
    02:00 +25°C° 0 mm 2 m/s 675 mmHg 60%
    03:00 +24°C° 0 mm 2 m/s 675 mmHg 61%
    04:00 +24°C° 0 mm 2 m/s 675 mmHg 61%
    05:00 +24°C° 0 mm 2 m/s 675 mmHg 61%
    06:00 +24°C° 0 mm 2 m/s 675 mmHg 60%
    07:00 +25°C° 0 mm 2 m/s 676 mmHg 53%
    08:00 +26°C° 0 mm 2 m/s 676 mmHg 46%
    09:00 +28°C° 0 mm 2 m/s 677 mmHg 39%
    10:00 +29°C° 0 mm 3 m/s 677 mmHg 37%
    11:00 +30°C° 0 mm 3 m/s 677 mmHg 35%
    12:00 +31°C° 0 mm 3 m/s 677 mmHg 33%
    13:00 +31°C° 0 mm 3 m/s 677 mmHg 33%
    14:00 +32°C° 0 mm 4 m/s 677 mmHg 34%
    15:00 +32°C° 0 mm 4 m/s 676 mmHg 34%
    16:00 +30°C° 0 mm 4 m/s 676 mmHg 39%
    17:00 +29°C° 0 mm 4 m/s 676 mmHg 44%
    18:00 +27°C° 0 mm 5 m/s 676 mmHg 49%
    19:00 +26°C° 0 mm 4 m/s 676 mmHg 53%
    20:00 +25°C° 0 mm 4 m/s 676 mmHg 56%
    21:00 +24°C° 0 mm 3 m/s 676 mmHg 60%
    22:00 +24°C° 0 mm 3 m/s 676 mmHg 61%
    23:00 +23°C° 0 mm 2 m/s 676 mmHg 62%

    Après-demain, 21 Août, Lundi

    Heure Température Précipitation Vent Pression Humidité
    00:00 +23°C° 0 mm 2 m/s 676 mmHg 63%
    01:00 +21°C° 0 mm 2 m/s 675 mmHg 64%
    02:00 +21°C° 0 mm 2 m/s 675 mmHg 65%
    03:00 +20°C° 0 mm 2 m/s 675 mmHg 65%
    04:00 +20°C° 0 mm 2 m/s 675 mmHg 65%
    05:00 +20°C° 0 mm 2 m/s 675 mmHg 65%
    06:00 +20°C° 0 mm 2 m/s 675 mmHg 65%
    07:00 +21°C° 0 mm 2 m/s 675 mmHg 57%
    08:00 +24°C° 0 mm 2 m/s 676 mmHg 49%
    09:00 +25°C° 0 mm 2 m/s 676 mmHg 41%
    10:00 +26°C° 0 mm 2 m/s 676 mmHg 38%
    11:00 +27°C° 0 mm 2 m/s 676 mmHg 34%
    12:00 +29°C° 0 mm 3 m/s 676 mmHg 30%
    13:00 +29°C° 0 mm 3 m/s 676 mmHg 29%
    14:00 +29°C° 0 mm 3 m/s 676 mmHg 28%
    15:00 +29°C° 0 mm 4 m/s 675 mmHg 26%
    16:00 +28°C° 0 mm 4 m/s 675 mmHg 28%
    17:00 +27°C° 0 mm 4 m/s 675 mmHg 30%
    18:00 +26°C° 0 mm 4 m/s 675 mmHg 32%
    19:00 +25°C° 0 mm 3 m/s 675 mmHg 36%
    20:00 +24°C° 0 mm 3 m/s 675 mmHg 39%
    21:00 +23°C° 0 mm 2 m/s 675 mmHg 42%
    22:00 +23°C° 0 mm 2 m/s 675 mmHg 43%
    23:00 +23°C° 0 mm 1 m/s 675 mmHg 44%

    22 Août, Mardi

    Heure Température Précipitation Vent Pression Humidité
    00:00 +22°C° 0 mm 1 m/s 674 mmHg 45%
    01:00 +22°C° 0 mm 1 m/s 674 mmHg 45%
    02:00 +21°C° 0 mm 1 m/s 674 mmHg 46%
    03:00 +21°C° 0 mm 1 m/s 674 mmHg 47%
    04:00 +21°C° 0 mm 1 m/s 674 mmHg 45%
    05:00 +19°C° 0 mm 0 m/s 674 mmHg 44%
    06:00 +20°C° 0 mm 0 m/s 674 mmHg 43%
    07:00 +23°C° 0 mm 1 m/s 675 mmHg 37%
    08:00 +25°C° 0 mm 1 m/s 675 mmHg 32%
    09:00 +27°C° 0 mm 1 m/s 676 mmHg 27%
    10:00 +28°C° 0 mm 2 m/s 676 mmHg 25%
    11:00 +29°C° 0 mm 2 m/s 676 mmHg 24%
    12:00 +30°C° 0 mm 3 m/s 676 mmHg 23%
    13:00 +30°C° 0 mm 3 m/s 676 mmHg 23%
    14:00 +30°C° 0 mm 3 m/s 675 mmHg 24%
    15:00 +31°C° 0 mm 3 m/s 675 mmHg 25%
    16:00 +30°C° 0 mm 3 m/s 675 mmHg 28%
    17:00 +29°C° 0 mm 3 m/s 674 mmHg 31%
    18:00 +28°C° 0 mm 2 m/s 674 mmHg 35%
    19:00 +27°C° 0 mm 2 m/s 674 mmHg 38%
    20:00 +26°C° 0 mm 2 m/s 674 mmHg 42%
    21:00 +25°C° 0 mm 1 m/s 674 mmHg 46%
    22:00 +25°C° 0 mm 1 m/s 674 mmHg 47%
    23:00 +25°C° 0 mm 1 m/s 674 mmHg 48%

    23 Août, Mercredi

    Heure Température Précipitation Vent Pression Humidité
    00:00 +24°C° 0 mm 1 m/s 674 mmHg 49%
    01:00 +24°C° 0 mm 1 m/s 673 mmHg 50%
    02:00 +23°C° 0 mm 1 m/s 673 mmHg 51%
    03:00 +21°C° 0 mm 0 m/s 673 mmHg 52%
    04:00 +23°C° 0 mm 1 m/s 673 mmHg 51%
    05:00 +24°C° 0 mm 1 m/s 674 mmHg 50%
    06:00 +24°C° 0 mm 1 m/s 674 mmHg 49%
    07:00 +25°C° 0 mm 2 m/s 675 mmHg 45%
    08:00 +27°C° 0 mm 2 m/s 675 mmHg 41%
    09:00 +28°C° 0 mm 3 m/s 676 mmHg 37%
    10:00 +29°C° 0 mm 3 m/s 676 mmHg 34%
    11:00 +30°C° 0 mm 3 m/s 676 mmHg 32%
    12:00 +32°C° 0 mm 4 m/s 676 mmHg 30%
    13:00 +31°C° 0 mm 3 m/s 676 mmHg 29%
    14:00 +31°C° 0 mm 3 m/s 675 mmHg 29%
    15:00 +33°C° 0 mm 3 m/s 675 mmHg 29%
    16:00 +31°C° 0 mm 3 m/s 675 mmHg 31%
    17:00 +30°C° 0 mm 2 m/s 675 mmHg 34%
    18:00 +29°C° 0 mm 2 m/s 675 mmHg 37%
    19:00 +29°C° 0 mm 2 m/s 675 mmHg 39%
    20:00 +28°C° 0 mm 2 m/s 675 mmHg 42%
    21:00 +27°C° 0 mm 1 m/s 675 mmHg 45%
    22:00 +27°C° 0 mm 1 m/s 675 mmHg 45%
    23:00 +26°C° 0 mm 1 m/s 674 mmHg 46%

    24 Août, Jeudi

    Heure Température Précipitation Vent Pression Humidité
    00:00 +26°C° 0 mm 1 m/s 674 mmHg 46%
    01:00 +26°C° 0 mm 1 m/s 674 mmHg 47%
    02:00 +25°C° 0 mm 1 m/s 674 mmHg 47%
    03:00 +25°C° 0 mm 1 m/s 674 mmHg 47%
    04:00 +25°C° 0 mm 2 m/s 674 mmHg 48%
    05:00 +25°C° 0 mm 2 m/s 674 mmHg 48%
    06:00 +25°C° 0 mm 2 m/s 675 mmHg 48%
    07:00 +26°C° 0 mm 3 m/s 675 mmHg 44%
    08:00 +28°C° 0 mm 3 m/s 676 mmHg 41%
    09:00 +29°C° 0 mm 3 m/s 676 mmHg 37%
    10:00 +30°C° 0 mm 3 m/s 676 mmHg 34%
    11:00 +31°C° 0 mm 3 m/s 676 mmHg 31%
    12:00 +33°C° 0 mm 3 m/s 676 mmHg 28%
    13:00 +33°C° 0 mm 3 m/s 676 mmHg 28%
    14:00 +34°C° 0 mm 3 m/s 676 mmHg 27%
    15:00 +34°C° 0 mm 3 m/s 676 mmHg 26%
    16:00 +33°C° 0 mm 3 m/s 675 mmHg 27%
    17:00 +33°C° 0 mm 3 m/s 675 mmHg 29%
    18:00 +31°C° 0 mm 2 m/s 675 mmHg 30%
    19:00 +30°C° 0 mm 2 m/s 675 mmHg 32%
    20:00 +29°C° 0 mm 2 m/s 675 mmHg 34%
    21:00 +29°C° 0 mm 1 m/s 675 mmHg 36%
    22:00 +28°C° 0 mm 1 m/s 675 mmHg 36%
    23:00 +28°C° 0 mm 2 m/s 675 mmHg 37%
    Voir plus